Theta_e
305 304 305 305 304 304 304 304 302 302 303 303 304 303 303 303 302 301 301 301 302 307 307 307 308 308 308 309 311 309 307 308 308 308 312 313 314 314 316 315 316 317 318 321 319 321 323 313 317 327 325 324 328 325
305 305 304 303 303 303 302 302 302 302 302 303 303 302 303 303 303 300 301 301 303 306 307 307 307 307 307 308 308 308 307 307 310 310 309 311 314 314 314 315 313 317 315 314 318 317 315 314 318 319 321 323 322 323
303 303 302 302 301 300 300 300 301 302 302 302 302 302 302 303 303 301 301 301 302 306 306 307 309 311 310 309 309 308 306 306 307 307 308 310 312 313 314 314 315 313 313 311 316 315 315 316 315 316 317 318 318 319
302 301 301 300 298 298 299 299 300 299 301 302 302 302 303 303 303 301 300 300 303 307 307 308 307 307 309 310 309 308 307 304 304 306 310 311 312 313 314 312 315 313 313 314 315 316 315 315 315 315 316 317 316 317
300 298 296 296 297 298 298 299 299 300 300 301 303 302 302 302 302 300 300 301 302 307 309 309 307 311 311 310 310 308 307 305 305 309 311 314 314 315 313 313 313 311 313 314 316 314 314 315 314 314 314 316 316 317
293 295 296 295 295 296 297 298 300 300 301 301 301 302 302 302 301 301 308 305 303 305 308 308 307 308 312 312 312 310 308 307 307 310 312 312 313 312 313 315 313 311 311 312 314 312 313 313 313 313 314 315 316 317
293 294 295 296 295 294 296 297 299 300 301 301 301 301 302 302 301 304 309 307 307 307 309 309 311 312 312 311 312 312 312 309 309 311 312 311 312 314 314 313 312 310 311 312 311 312 313 313 313 313 314 314 315 316
293 294 295 295 296 295 296 297 297 299 299 298 301 302 302 302 304 305 307 308 308 308 308 310 311 312 313 314 314 312 313 313 313 313 313 313 313 313 313 312 312 312 312 313 312 312 312 312 312 312 313 313 314 316
294 294 294 295 295 295 296 297 298 298 298 300 303 304 304 305 309 310 308 307 307 309 309 311 311 316 313 312 312 312 312 313 313 314 314 312 313 313 314 313 313 313 313 313 313 312 312 311 312 311 312 313 313 314
294 294 294 295 294 295 295 296 297 298 302 305 306 307 310 307 304 306 306 308 307 306 308 309 310 313 313 314 313 312 313 314 316 314 312 314 314 313 312 312 312 312 311 310 310 312 313 314 313 311 312 312 312 312
293 293 294 294 295 294 295 296 298 299 304 304 306 307 304 304 306 310 310 310 310 311 310 310 310 311 314 315 313 312 314 312 315 316 314 316 315 314 311 311 310 311 310 309 310 311 312 312 311 311 311 311 310 310
293 293 293 294 294 294 294 296 298 299 299 300 300 301 303 305 309 310 312 312 313 315 313 314 314 314 314 312 312 312 312 312 316 315 315 317 315 313 312 312 312 310 310 310 309 311 310 311 310 310 310 310 309 308
292 293 293 293 294 297 298 297 297 297 299 303 302 303 305 307 310 311 312 316 317 315 315 315 314 314 312 311 312 312 311 311 313 314 317 317 314 312 312 311 311 310 310 310 311 311 310 310 310 309 309 309 308 308
292 292 293 295 297 298 297 296 296 297 301 306 308 308 308 309 312 312 313 314 315 314 312 312 314 313 313 313 313 313 312 312 312 315 316 314 313 312 312 312 311 310 310 310 310 310 310 310 310 310 309 309 308 307
292 292 295 296 295 295 295 295 295 296 302 306 309 310 310 310 312 313 313 313 313 312 311 312 313 314 314 314 314 313 313 312 311 312 315 314 313 313 313 312 311 310 310 310 309 310 309 309 309 309 308 308 307 307
291 293 296 293 293 293 292 293 296 299 303 306 308 309 310 312 312 313 315 314 314 313 312 312 312 314 315 314 313 313 313 310 310 314 314 312 313 312 313 311 311 310 310 309 308 310 310 309 309 309 307 308 307 307
291 294 294 294 292 292 293 296 300 303 305 307 307 307 308 309 310 310 311 312 313 313 315 314 314 314 314 314 315 314 313 311 315 314 313 314 313 311 310 311 313 311 310 309 310 310 310 309 308 309 308 308 307 307
292 293 293 292 293 293 297 300 301 304 304 305 305 305 305 306 307 308 309 311 314 315 313 315 314 314 314 315 315 315 315 315 313 312 311 311 310 311 310 310 311 311 309 308 310 310 310 309 307 308 307 308 307 306
292 291 291 293 294 294 297 301 302 303 304 305 305 306 307 307 308 309 310 310 313 315 315 314 313 314 314 313 313 313 315 312 313 312 312 314 313 313 311 311 310 310 309 310 311 309 310 307 307 306 307 307 306 305
291 291 293 294 294 296 298 299 301 304 304 306 305 305 306 307 307 308 309 311 313 314 314 314 314 313 311 312 312 311 312 312 312 312 313 312 312 312 311 311 309 310 309 309 310 310 309 308 307 306 306 306 306 303
292 293 292 293 295 297 298 299 300 303 304 304 304 305 306 307 308 309 309 308 310 313 313 313 313 312 312 312 312 311 312 312 310 310 312 311 311 312 311 311 312 310 310 309 308 306 309 308 306 306 306 306 304 303
292 292 293 294 295 296 299 299 300 300 300 301 301 301 302 303 304 304 305 305 306 308 311 312 312 313 312 312 311 312 312 312 312 309 310 309 312 312 310 311 310 309 310 308 308 308 308 306 306 305 306 304 302 301
293 294 294 295 295 296 296 297 299 299 300 302 302 302 303 304 305 306 308 309 309 308 308 308 310 311 311 312 312 313 311 311 311 311 309 309 310 311 311 310 310 309 308 309 308 307 307 305 305 305 304 305 303 301
293 292 296 295 296 296 298 299 301 301 301 301 302 302 303 304 304 305 306 306 307 307 309 311 312 312 311 312 312 312 312 311 310 311 310 310 310 309 309 310 309 308 309 308 307 307 306 305 305 304 303 303 303 301
293 293 294 295 297 298 297 298 298 299 299 299 300 301 301 301 302 303 304 305 306 308 309 311 311 312 312 313 311 311 311 310 309 310 311 310 310 310 309 308 307 307 307 307 307 306 305 304 304 303 302 301 302 300
294 294 295 296 297 297 297 297 298 300 301 301 301 302 304 302 302 303 305 305 305 304 305 306 307 310 309 308 308 310 310 309 310 309 310 310 309 309 309 309 308 307 307 306 306 306 305 304 303 302 299 299 299 300
294 294 294 294 294 295 295 296 296 297 298 299 301 302 304 306 305 304 302 300 301 301 303 304 305 306 307 307 307 308 309 308 309 309 309 309 309 309 309 309 307 305 304 304 304 304 304 303 303 303 301 299 298 297
294 293 293 294 294 295 295 296 295 296 297 299 300 302 304 302 302 302 302 303 299 298 298 300 302 303 305 305 308 308 309 309 308 308 309 309 308 307 307 307 307 306 304 303 303 303 303 303 302 301 301 298 297 296
295 295 294 295 295 295 295 296 296 296 297 297 298 299 300 301 301 301 302 302 301 301 300 301 303 305 305 306 307 306 307 308 308 308 306 307 307 304 304 303 303 303 302 303 303 302 302 302 301 300 298 297 295 294
295 295 295 295 296 296 296 297 297 297 297 297 298 299 300 301 296 294 295 296 299 300 299 301 301 302 302 302 304 301 300 300 302 305 306 305 303 304 303 303 303 302 301 301 299 298 299 298 299 297 296 294 293 292
296 297 297 297 297 297 298 298 298 298 298 298 298 298 299 298 294 291 291 292 292 294 293 294 295 297 298 298 299 300 300 298 297 299 302 302 303 303 305 302 303 302 301 299 297 297 298 299 297 294 292 291 292 291
299 300 299 299 300 299 299 299 299 299 299 300 299 299 300 299 295 293 290 290 291 291 291 291 292 293 296 295 294 294 294 295 296 297 298 298 299 300 302 303 303 302 302 301 299 297 296 294 294 292 291 290 290 289
300 300 300 300 300 299 300 300 300 300 299 301 299 299 297 294 292 291 289 288 289 289 290 290 291 292 294 294 294 293 292 292 295 296 296 296 296 296 297 298 298 298 298 297 295 294 293 292 292 291 290 289 288 287
Wind_Speed
28 28 28 27 26 27 28 28 29 29 26 25 23 22 22 21 17 14 18 18 10 4 14 16 12 14 17 11 4 7 8 5 3 6 3 4 3 4 4 5 6 4 4 1 2 1 2 15 16 7 6 9 7 8
28 28 27 28 26 27 30 30 28 27 26 26 23 23 22 21 18 13 13 15 15 7 7 30 38 39 28 28 4 0 2 4 3 3 3 3 2 3 5 4 4 2 5 2 5 4 4 12 16 11 7 8 8 6
27 28 27 27 29 28 27 27 28 28 26 26 25 23 23 21 19 16 22 20 16 3 9 5 7 8 13 21 16 1 2 3 3 1 2 2 3 2 2 2 4 6 8 3 1 5 6 10 14 13 13 14 14 12
26 28 29 30 27 26 26 27 28 29 27 26 25 24 23 22 22 20 17 17 12 5 3 6 15 19 11 11 9 4 1 2 2 2 3 3 3 2 2 2 2 2 5 7 2 5 4 9 16 16 15 14 11 12
28 28 28 26 25 26 26 27 29 29 27 26 26 25 25 25 25 23 22 21 21 6 3 7 27 10 10 17 15 15 9 3 2 2 3 3 2 3 2 2 3 3 2 2 2 8 4 4 7 15 14 9 9 10
27 27 26 27 26 26 26 27 27 28 28 28 27 27 27 25 21 9 3 7 19 21 2 4 7 7 17 19 16 14 9 4 2 3 4 3 4 3 1 2 1 5 5 6 4 7 6 5 8 13 13 14 14 12
26 25 24 25 26 26 27 25 27 29 29 29 29 27 25 20 13 7 3 2 10 16 2 4 3 3 12 6 4 4 11 3 3 3 3 3 4 2 3 2 4 4 5 5 6 6 7 10 11 14 16 18 13 10
22 22 22 23 25 25 25 25 29 30 33 34 31 29 25 17 9 8 16 7 11 5 3 3 4 4 6 4 3 4 3 4 3 3 3 2 4 1 3 3 6 4 3 6 7 7 4 4 6 10 12 15 17 16
20 21 22 23 23 25 25 26 28 32 34 32 26 23 2 3 4 2 5 8 10 3 3 3 3 3 3 4 1 1 3 3 3 3 3 2 2 2 1 5 6 5 3 4 4 6 4 8 10 11 12 14 12 14
20 21 22 22 24 24 23 25 28 32 26 19 10 4 2 1 5 4 2 2 1 2 3 4 4 4 2 3 2 3 2 2 2 4 1 2 0 1 3 2 5 4 0 3 6 6 6 7 6 7 8 9 9 9
21 22 23 22 23 24 23 20 20 24 12 10 6 3 9 11 4 3 3 3 4 4 4 4 8 6 3 2 1 1 2 3 2 2 3 1 2 3 4 6 2 3 4 5 6 5 6 6 5 6 6 9 9 12
21 22 23 24 24 23 20 15 18 17 15 13 17 15 7 3 3 4 3 4 6 4 5 4 4 4 2 2 2 1 1 3 3 2 3 3 3 7 6 6 6 6 3 6 10 7 6 7 8 6 6 5 7 13
21 22 24 24 21 18 12 10 17 21 22 3 3 2 2 3 4 5 5 4 4 4 4 4 4 4 2 3 1 1 0 4 5 3 1 2 5 6 6 4 1 5 5 7 10 5 14 13 10 7 5 10 12 13
22 23 23 16 10 9 15 18 20 21 6 3 3 4 5 5 5 6 7 6 4 4 1 1 4 4 3 3 3 3 4 2 2 2 1 3 5 4 6 5 4 3 5 7 8 3 10 11 7 10 12 13 12 13
23 24 14 8 15 19 22 23 23 11 4 4 3 5 6 8 8 8 8 9 7 3 2 2 2 3 1 1 3 1 2 2 4 3 2 5 4 6 6 6 5 3 5 4 5 6 9 11 11 5 9 9 15 12
25 16 3 16 25 31 27 19 15 8 4 4 6 7 8 9 8 8 7 5 5 2 3 1 2 2 4 3 3 5 3 5 4 2 3 7 11 5 6 6 6 5 6 5 4 7 9 8 9 5 10 8 13 13
19 4 23 28 28 26 18 5 4 6 4 5 4 5 9 11 11 11 9 7 3 1 5 3 2 5 3 3 2 4 5 4 3 4 2 5 3 6 4 4 7 8 7 6 8 10 3 2 8 13 5 11 17 16
17 19 23 21 26 19 6 6 4 5 8 7 5 7 8 9 11 10 10 8 6 2 7 7 3 3 3 4 3 4 4 4 4 4 5 6 9 6 6 5 8 13 10 5 5 9 3 8 9 7 13 14 16 17
21 25 23 20 16 5 4 5 6 5 5 6 7 8 10 9 10 11 9 9 7 3 4 4 4 2 4 4 4 3 2 3 4 4 4 8 9 7 6 13 10 13 11 11 9 6 7 13 11 13 11 12 14 15
22 20 16 12 7 4 4 4 7 5 4 4 7 9 9 8 9 9 9 8 5 3 5 4 5 5 3 3 4 6 8 5 5 2 2 3 1 5 5 6 8 13 9 9 5 17 14 13 14 14 10 13 16 13
22 4 17 15 6 10 4 4 5 5 6 7 8 9 7 7 7 6 6 6 6 6 7 4 6 7 7 5 4 3 2 5 4 5 8 5 6 10 7 11 9 13 7 2 6 5 16 14 11 7 8 19 19 15
20 20 19 12 6 5 5 9 5 4 5 7 9 8 6 6 9 11 9 9 7 8 6 9 10 9 9 8 4 9 4 9 9 11 16 15 7 5 4 8 6 4 5 9 10 11 13 12 11 15 19 20 18 17
18 12 7 6 5 5 6 12 7 5 5 4 7 11 8 8 6 9 6 6 9 9 9 8 7 10 6 8 5 5 7 11 8 5 9 11 9 11 1 13 10 7 4 7 16 17 13 12 10 17 13 17 19 16
9 3 3 4 8 5 4 7 5 6 5 9 9 15 14 10 9 9 11 9 8 8 7 5 0 2 5 5 3 7 9 19 12 8 17 13 6 7 17 12 13 11 7 13 19 19 18 17 15 16 13 13 15 16
4 5 4 6 5 5 6 9 12 10 14 14 16 14 7 6 9 13 15 11 8 10 11 8 3 4 6 12 8 6 13 8 4 3 6 15 13 15 13 15 19 21 18 22 18 15 18 20 18 19 15 12 11 15
5 5 6 5 5 6 5 10 11 9 10 7 5 4 4 6 10 7 4 8 8 8 10 8 11 6 6 6 2 2 6 7 5 5 8 25 24 15 10 9 7 11 19 22 18 18 19 21 19 19 17 14 10 12
5 7 6 8 9 12 11 9 9 7 6 4 4 4 2 3 2 4 1 4 5 10 22 23 19 12 5 7 12 12 18 17 8 1 5 22 23 22 18 8 7 18 18 18 16 21 22 21 19 18 18 17 13 11
7 6 13 9 10 8 13 12 14 14 7 3 1 5 9 4 3 4 2 1 7 19 24 23 23 25 23 19 19 21 21 20 21 11 9 18 21 17 18 16 17 22 22 21 18 17 19 21 19 15 20 21 16 12
7 6 8 14 13 8 9 11 11 9 9 9 11 9 3 1 1 4 9 10 5 12 13 16 16 20 24 23 24 26 24 20 11 10 13 7 3 11 21 27 30 26 23 22 22 21 20 18 19 19 23 21 17 13
10 9 8 9 9 6 7 6 10 11 10 9 7 6 4 1 15 21 20 20 18 15 18 19 21 21 17 17 13 19 24 22 17 8 2 3 6 20 11 22 25 25 25 26 24 22 20 22 24 24 22 19 16 14
5 3 4 5 7 10 10 8 8 9 8 8 8 7 9 5 8 19 24 21 20 18 18 16 16 18 15 15 12 7 8 18 18 14 3 3 2 23 3 18 25 24 23 24 25 24 23 20 24 24 19 17 14 12
3 5 4 5 4 6 9 8 7 7 8 6 7 8 3 4 4 4 22 22 19 16 17 17 15 15 14 10 10 11 9 8 13 24 29 27 23 21 20 15 12 25 25 23 25 25 25 26 23 21 19 17 15 13
6 9 10 5 1 4 2 2 2 2 3 3 1 6 5 4 5 6 13 24 19 16 14 14 16 16 16 15 14 15 16 18 17 16 14 16 17 16 21 27 27 29 28 26 24 23 21 21 20 19 17 17 16 15
Wind_Direction
315 317 319 319 320 322 320 318 320 322 319 319 324 324 325 324 324 323 291 297 258 270 284 275 280 299 305 294 308 322 337 10 336 9 328 345 352 354 321 343 344 346 310 181 154 12 274 352 320 49 326 303 278 36
315 316 315 315 316 317 316 313 315 319 319 320 321 322 322 321 318 317 285 309 305 258 276 295 284 275 251 254 248 125 265 274 2 324 356 317 308 325 326 344 340 23 352 309 350 55 23 329 348 329 285 262 0 43
315 314 314 313 316 318 316 315 314 316 317 315 319 320 320 320 314 302 287 290 293 263 281 269 277 322 262 242 226 139 245 292 309 58 291 294 311 342 336 341 309 342 8 22 253 356 6 341 324 314 344 18 14 354
315 314 313 315 319 319 320 317 315 313 314 313 315 317 318 316 310 304 281 271 260 272 272 277 310 314 299 169 147 149 152 215 228 276 255 247 252 201 351 250 335 236 344 352 309 8 3 3 323 334 341 8 6 356
311 313 315 316 318 318 319 320 318 316 312 311 311 311 314 315 316 306 283 252 236 244 292 300 304 296 197 170 179 180 180 224 267 263 226 247 225 142 107 268 346 340 51 15 345 300 238 298 342 314 333 346 356 336
315 315 314 313 313 313 315 318 320 318 318 315 310 310 318 320 320 309 272 227 214 220 282 301 310 267 182 188 187 190 183 199 226 246 262 247 232 101 93 337 320 16 8 99 226 310 303 1 341 3 358 346 345 2
310 310 312 311 312 310 310 311 314 315 314 313 315 316 315 315 305 240 318 3 205 206 252 278 276 251 181 193 235 215 185 192 227 251 257 268 296 108 137 65 9 37 350 337 327 345 1 9 359 1 6 2 342 23
311 312 313 314 317 320 323 315 310 312 313 313 314 314 308 303 272 248 239 235 177 215 252 268 279 285 188 213 233 197 190 188 226 243 281 290 342 19 60 41 74 52 353 49 10 353 19 345 4 9 9 11 13 21
317 318 317 317 318 321 323 322 318 317 313 314 315 310 305 175 238 195 183 196 210 263 275 241 247 275 27 275 233 190 212 206 225 212 253 82 353 59 337 35 62 53 47 356 284 315 24 34 26 17 14 14 13 11
318 319 319 321 320 317 315 317 325 321 321 326 318 226 124 97 325 224 110 164 173 246 236 256 244 262 33 254 302 12 334 269 242 244 44 70 24 286 102 130 135 122 18 299 47 15 41 40 42 42 24 23 10 13
320 320 319 322 323 320 317 326 338 341 354 345 336 13 324 324 260 213 215 198 177 226 213 233 211 233 11 289 192 21 307 279 271 324 166 175 280 199 215 134 71 24 114 43 71 119 77 58 38 58 34 31 14 11
322 321 322 321 319 319 316 323 342 349 329 303 291 297 291 272 239 248 212 214 206 235 187 211 186 168 176 88 90 300 209 335 274 216 214 162 205 188 222 106 114 97 34 51 76 85 85 99 67 50 46 30 27 35
321 322 323 321 324 326 332 342 340 335 329 277 218 244 226 219 239 216 216 219 207 206 159 201 155 135 78 107 119 84 73 245 316 325 294 192 185 138 131 137 51 92 42 57 125 116 92 81 65 58 8 2 59 51
322 322 323 332 351 343 330 330 337 341 312 256 218 252 217 216 231 206 251 261 218 198 95 107 130 135 176 161 152 188 217 89 305 264 241 137 293 178 159 149 126 182 110 67 90 120 124 112 88 33 1 357 62 63
326 325 326 344 336 327 320 313 311 317 273 271 225 241 233 234 278 273 250 262 272 149 105 331 88 124 64 204 208 285 232 246 203 234 234 171 232 171 132 121 139 93 108 117 71 55 83 94 99 77 355 65 58 73
329 337 5 339 327 318 317 315 306 213 245 243 237 263 281 285 284 289 264 278 314 269 147 112 147 175 186 191 167 208 186 216 244 228 166 149 237 135 154 154 158 126 130 77 91 98 59 94 116 125 56 58 62 69
334 273 323 319 328 326 319 276 235 202 239 234 244 260 268 278 277 279 284 285 157 141 264 118 206 209 205 156 205 176 201 215 211 238 218 71 179 163 171 171 143 128 138 167 123 113 139 68 115 115 81 59 58 52
305 311 312 328 337 335 295 212 260 244 236 235 251 255 258 266 272 275 279 282 294 242 200 192 206 205 201 201 200 223 212 206 225 240 171 152 225 190 175 182 142 140 126 173 168 149 181 106 78 78 91 74 63 51
303 307 317 326 340 298 284 218 216 258 261 283 256 255 259 263 259 261 267 273 271 213 131 260 154 219 210 228 243 330 165 193 218 240 168 159 190 205 194 143 130 140 160 207 165 159 148 108 108 89 62 90 88 65
312 312 320 321 315 258 260 263 239 254 268 262 296 281 275 276 281 285 287 288 270 190 231 224 218 233 228 256 164 176 227 215 193 205 203 81 81 174 155 153 169 160 186 244 198 157 142 120 112 109 98 106 100 83
315 273 331 326 288 231 267 265 245 264 269 265 268 280 278 293 294 293 298 315 302 231 260 267 245 254 251 262 279 298 207 155 170 171 186 209 199 222 193 199 172 169 195 169 115 130 137 129 131 140 147 107 102 91
283 292 300 281 243 248 233 231 245 292 306 291 299 276 269 275 283 283 285 279 275 277 236 237 240 247 247 230 233 262 338 319 200 169 150 163 179 203 197 196 192 130 98 119 110 112 117 106 108 97 110 116 103 91
290 278 229 229 242 240 254 224 238 232 252 274 317 312 303 306 295 298 284 274 267 258 256 260 272 233 226 219 242 268 180 233 275 203 171 174 159 118 182 189 167 152 158 172 137 129 140 134 113 108 92 118 116 102
272 236 258 238 206 255 251 242 255 263 254 266 288 292 292 288 285 274 277 276 282 289 292 281 215 41 346 322 277 266 212 211 220 217 164 158 143 160 209 155 146 154 225 169 140 149 157 137 128 110 100 88 107 103
267 243 226 252 260 245 251 252 257 264 270 273 273 272 265 282 292 293 290 286 311 356 344 346 30 171 169 238 234 238 219 170 151 149 177 148 123 121 137 167 171 162 161 150 155 156 135 133 121 120 111 102 89 105
246 239 212 243 255 263 266 280 285 312 309 290 273 291 303 254 247 269 2 6 350 356 351 338 325 319 275 282 325 90 61 13 346 161 146 144 151 162 158 211 191 164 184 161 154 154 144 133 128 131 122 108 103 110
236 250 234 248 269 280 279 276 287 276 274 282 284 271 268 256 136 11 298 10 335 348 354 353 344 322 315 48 30 17 45 20 277 345 156 162 168 178 186 160 149 150 148 146 151 141 144 144 143 144 139 123 113 108
234 256 259 264 265 271 280 289 299 300 273 257 83 331 354 18 309 325 42 349 49 26 6 349 343 342 347 25 38 39 29 14 20 27 77 148 149 149 145 158 160 180 159 157 152 141 132 135 135 136 134 128 123 119
247 262 287 280 275 265 268 264 266 264 270 281 288 294 310 24 20 315 331 347 344 42 16 318 334 12 15 30 50 47 38 29 29 37 36 14 318 122 147 132 136 143 143 139 141 142 139 136 140 128 124 120 122 119
262 253 245 257 264 269 243 244 265 276 280 273 286 275 225 89 41 30 19 9 3 22 22 25 23 21 23 16 21 50 40 36 33 30 38 70 331 311 261 143 141 147 143 137 131 128 130 129 130 130 123 126 127 125
273 250 245 243 254 254 265 274 275 265 265 283 273 263 279 127 88 39 25 15 10 15 21 19 14 16 17 19 14 20 43 30 29 41 99 126 354 315 241 149 145 144 159 158 153 146 139 130 124 120 120 124 129 130
251 245 264 265 285 288 277 266 261 253 250 264 304 288 275 92 58 35 12 7 9 7 2 4 4 351 9 10 33 45 50 47 51 51 60 66 68 54 54 53 100 130 122 123 111 111 119 116 116 122 130 133 132 126
270 277 294 310 360 292 346 172 277 261 252 216 291 35 41 67 75 17 6 13 4 351 352 3 11 26 39 42 46 52 55 62 71 65 59 68 68 62 54 61 74 81 91 99 105 114 118 121 124 129 133 139 134 130